Theta_e
313 313 314 314 314 314 314 314 314 312 312 312 311 311 311 311 311 310 311 311 311 311 310 310 310 311 312 311 310 312 312 309 309 308 307 309 316 319 320 315 316 315 317 311 311 310 308 309 309 312 311 310 310 309 313 313 313 310 303 301 299 302 301 305 304 305 308 305 308 306 308 307 305 310 311 316 317 318 317 319 322 320 320 321 339 346 346 346
312 313 313 314 314 314 314 313 314 314 314 313 312 312 311 311 311 311 310 311 311 310 310 310 310 310 311 311 312 311 310 309 307 308 308 315 321 318 317 317 317 317 315 309 309 309 308 307 309 310 309 306 312 308 313 310 313 305 303 302 299 303 305 308 308 309 307 306 308 308 308 308 307 309 312 310 313 318 317 320 319 317 320 324 338 344 345 347
312 313 313 313 313 313 313 313 313 313 313 313 313 313 312 311 311 311 311 310 311 310 310 309 310 310 310 311 312 312 310 307 308 304 307 318 315 320 315 320 321 319 314 308 310 310 309 309 310 309 307 306 309 306 310 310 310 308 304 300 302 306 307 309 310 308 309 308 307 307 308 308 309 309 312 308 308 315 318 319 316 318 318 326 335 339 343 346
311 312 312 312 312 312 312 312 312 313 314 313 313 313 313 312 312 312 311 311 310 310 310 309 310 310 311 311 312 312 309 307 302 306 313 317 317 316 319 318 321 323 318 312 313 311 311 310 311 310 306 304 307 309 306 309 306 307 304 301 304 307 305 308 308 309 308 308 307 307 309 307 309 310 310 309 308 310 314 320 319 319 324 326 335 333 336 338
310 310 311 311 311 311 312 312 312 312 312 313 314 313 312 313 312 312 311 311 310 310 310 309 309 310 310 311 311 311 307 297 298 314 315 314 316 315 317 320 320 323 320 314 312 312 310 307 308 309 306 302 305 306 306 309 310 308 304 306 306 308 306 309 309 309 308 308 307 307 306 306 311 310 309 308 306 309 318 320 322 324 327 328 333 340 342 343
309 309 310 310 310 310 311 311 311 311 311 312 313 314 313 312 312 312 312 311 310 310 310 309 309 310 310 311 310 309 305 290 307 310 315 310 314 314 320 319 323 323 321 314 310 309 307 306 306 305 304 303 303 302 306 308 310 302 306 306 307 308 307 309 309 309 308 307 306 305 308 309 309 308 310 309 309 312 316 327 326 325 327 329 330 338 340 341
308 308 309 309 309 310 310 310 310 310 311 311 311 312 313 313 313 312 312 312 311 310 309 309 309 308 309 310 310 306 301 303 307 312 315 310 312 316 315 320 326 323 319 313 310 307 306 304 304 304 304 302 303 303 306 306 309 306 303 306 306 308 307 309 309 308 307 307 306 308 309 307 307 305 310 309 311 313 318 326 328 326 329 331 330 337 341 340
308 308 308 308 308 309 309 310 310 310 310 310 311 311 312 313 313 312 311 311 311 310 309 309 309 308 308 307 303 300 300 300 307 314 315 311 311 312 315 311 324 319 315 311 309 307 306 303 302 305 303 301 303 303 306 305 306 304 303 306 308 309 308 309 309 309 308 308 309 308 307 307 308 308 309 309 311 315 318 328 330 329 331 332 331 335 340 338
307 307 307 308 308 308 308 308 309 309 310 310 310 310 311 312 312 312 312 311 311 310 309 310 309 308 308 306 302 297 297 306 311 312 312 310 310 310 309 309 312 319 313 312 311 308 306 304 304 306 301 303 306 303 305 303 301 305 305 306 307 307 308 309 308 308 308 309 309 307 306 308 309 311 308 310 312 315 325 328 328 330 330 331 331 329 337 338
307 307 307 307 307 307 307 308 307 308 308 309 309 309 310 310 311 312 311 311 310 310 310 309 309 308 306 303 300 293 302 308 309 310 310 309 309 309 308 309 308 314 316 312 310 308 305 305 305 307 307 306 307 304 305 304 302 307 306 306 306 307 308 309 308 308 308 308 308 305 305 306 309 308 304 312 314 323 326 327 331 330 326 325 329 330 332 339
307 307 307 307 307 307 306 307 307 307 308 308 309 309 309 309 311 311 311 311 310 310 310 309 309 308 304 303 295 294 309 307 311 312 310 310 308 307 307 308 308 307 313 314 310 309 308 307 308 308 306 303 306 304 304 305 307 307 307 306 306 306 307 308 308 307 308 306 308 307 305 307 308 308 306 311 316 327 323 325 330 327 325 328 334 329 338 343
307 306 306 307 306 306 306 306 307 307 307 307 308 308 308 309 309 311 310 311 311 310 310 310 308 307 304 300 296 297 309 309 311 311 310 309 308 308 309 309 309 307 308 311 311 309 309 308 308 306 301 307 301 305 304 307 306 306 305 302 303 304 303 307 306 307 308 306 308 308 305 303 305 305 311 319 323 325 322 326 327 327 331 333 336 335 341 341
307 307 307 307 307 306 306 306 306 306 306 307 307 308 308 308 309 310 311 311 311 310 310 309 309 308 302 294 298 307 309 310 309 309 309 309 309 309 309 309 309 309 308 309 311 311 310 309 308 304 307 305 303 299 305 307 305 306 305 302 302 301 300 305 307 307 306 307 308 307 295 299 303 307 311 315 323 324 324 327 326 327 332 329 336 339 340 341
307 307 307 307 307 307 306 306 306 306 306 306 306 307 307 308 309 309 310 310 311 311 310 309 308 306 300 294 302 307 309 310 310 308 307 308 306 306 309 309 310 309 309 308 312 313 311 310 308 306 309 305 302 309 304 304 305 300 303 303 299 298 297 305 305 306 304 308 307 307 297 299 304 307 310 314 321 325 323 326 325 327 330 330 337 338 339 340
307 307 307 306 306 306 306 306 306 305 305 305 306 306 307 307 308 309 309 310 310 310 309 309 307 302 296 297 307 310 312 310 305 305 307 306 304 304 306 308 307 308 308 308 310 312 311 309 307 303 302 307 307 304 300 301 302 302 297 295 299 297 299 304 306 305 302 306 308 305 298 300 304 307 310 313 318 321 322 325 327 330 330 332 337 337 338 339
307 307 307 306 306 306 306 306 306 305 305 305 305 306 307 307 308 308 310 310 310 309 311 307 303 301 296 292 301 312 307 303 303 307 308 307 306 304 307 306 307 307 307 307 310 311 309 307 302 303 303 305 301 299 298 298 298 300 297 296 295 297 298 301 304 306 306 305 307 304 298 301 303 308 310 314 318 323 322 327 324 324 329 333 336 336 335 337
306 306 306 306 306 306 306 306 305 305 304 305 305 305 306 306 306 307 308 309 309 310 306 300 302 302 290 303 306 301 301 304 307 307 308 308 306 306 306 305 304 305 306 308 309 308 307 303 305 303 304 301 300 300 295 293 294 296 298 296 298 296 297 298 304 306 305 305 302 305 301 302 305 309 310 317 318 318 322 328 326 323 327 333 332 337 335 335
306 306 306 306 305 305 305 305 305 305 304 304 304 305 304 305 306 306 307 308 309 307 304 306 303 297 294 301 294 298 305 304 304 305 306 308 307 306 305 303 304 304 304 304 306 303 304 299 302 297 299 299 299 297 293 290 294 295 296 295 296 299 299 299 299 303 305 304 303 303 302 302 305 309 311 317 318 317 322 328 329 328 328 329 335 330 331 333
306 306 305 305 305 305 305 305 305 305 304 304 304 305 306 306 305 305 302 303 300 296 290 292 294 285 288 296 303 303 304 306 306 305 303 306 307 307 306 306 304 302 299 300 300 301 302 299 300 296 293 295 296 297 295 297 299 298 298 297 297 297 297 297 303 306 305 302 301 302 300 301 304 308 312 316 315 316 321 325 326 328 329 322 326 325 327 329
306 306 305 305 305 305 304 305 304 304 303 303 303 302 301 297 298 297 300 300 296 296 296 297 298 298 298 300 299 303 305 305 299 302 304 307 305 303 303 304 302 302 300 296 299 299 301 294 292 292 295 297 298 299 299 300 301 301 300 299 297 299 299 301 303 305 306 302 301 302 303 302 304 307 312 314 315 315 321 318 321 326 328 322 320 320 326 326
306 305 305 305 304 304 304 304 304 303 303 304 302 298 290 292 289 287 294 296 299 299 297 297 298 298 297 301 302 300 298 300 300 301 303 308 305 302 299 300 298 295 297 300 298 301 300 293 293 296 298 299 299 301 301 300 301 300 299 298 297 299 298 301 302 305 305 302 300 303 303 303 304 307 311 314 313 314 321 319 321 324 323 320 321 323 327 327
305 305 304 304 305 304 304 304 304 303 303 304 300 294 295 296 300 302 298 289 297 299 298 298 299 298 302 301 303 303 300 296 297 301 305 306 302 297 298 298 296 294 298 299 299 296 294 292 296 299 301 301 301 300 301 299 299 300 299 298 297 298 302 303 303 304 305 302 300 302 301 302 304 306 309 311 313 317 321 327 325 318 315 317 322 321 325 326
305 305 305 304 304 304 303 303 303 303 303 300 296 296 296 301 306 306 302 294 291 298 297 297 295 296 297 301 302 303 295 294 293 299 302 304 300 298 299 295 295 296 298 298 294 293 291 294 298 301 301 300 299 300 299 299 300 299 299 298 295 300 298 295 301 302 304 302 300 302 300 302 305 307 307 311 312 320 322 322 317 319 316 320 317 321 324 326
305 305 304 304 304 303 303 302 303 303 301 299 297 297 301 302 305 304 298 288 288 294 297 297 298 297 297 296 301 300 296 295 296 296 305 303 298 300 298 296 295 296 295 297 297 294 293 298 301 301 301 299 298 299 298 297 296 299 300 299 298 299 299 300 300 301 303 303 303 303 300 300 303 302 304 309 312 317 321 320 320 320 324 324 323 320 325 324
305 304 304 304 303 303 303 302 300 300 301 301 300 303 303 305 306 305 295 290 290 289 299 298 299 298 299 306 305 297 298 298 298 301 304 302 300 298 296 300 298 294 296 298 298 296 296 301 301 300 299 299 298 297 297 298 295 297 300 300 300 300 300 300 302 299 298 297 301 300 294 295 301 303 303 306 309 313 320 320 318 319 323 326 322 324 326 327
304 304 303 303 303 302 303 298 298 301 300 297 300 304 306 304 304 304 296 284 279 288 296 288 300 293 305 298 301 299 299 292 299 301 304 303 306 300 299 296 298 293 297 297 297 298 298 301 300 298 298 298 298 297 298 299 296 295 297 302 301 301 301 300 300 299 294 292 298 302 294 291 301 300 303 306 307 316 319 317 320 322 323 326 326 329 330 329
304 304 303 303 302 302 298 294 301 301 295 296 302 304 303 304 306 301 286 280 276 289 287 295 295 296 302 299 299 300 286 290 300 301 301 304 300 305 296 295 297 299 300 301 297 293 300 299 298 299 298 297 296 294 298 299 297 295 301 301 301 300 300 300 299 298 297 300 301 301 299 295 295 299 304 306 307 316 314 316 318 322 324 326 327 328 329 331
304 304 303 303 302 302 301 301 299 297 296 300 306 303 303 303 304 300 285 272 274 294 288 294 296 305 300 300 301 294 295 299 291 296 302 304 303 300 297 295 295 296 299 298 289 298 300 297 297 296 297 296 295 297 300 300 297 298 302 302 300 300 300 300 300 298 299 298 294 297 300 293 294 301 305 306 304 309 312 314 315 318 320 324 327 328 329 331
304 303 303 303 302 303 304 301 298 296 301 303 304 303 302 303 298 287 280 271 289 290 304 291 305 299 298 300 297 296 296 298 291 296 301 303 303 301 294 297 298 297 300 299 294 298 300 300 299 299 297 294 298 300 301 300 296 300 303 303 302 302 302 301 298 298 298 295 291 296 298 292 292 300 302 306 304 304 307 312 313 316 318 321 326 327 330 331
303 303 303 302 302 302 303 303 299 302 304 304 304 305 303 300 290 278 274 269 294 283 294 295 294 292 297 292 292 294 293 295 297 297 299 298 299 302 300 303 298 297 296 299 299 300 300 304 304 300 297 299 299 300 301 300 300 303 303 300 299 299 299 300 299 298 296 289 293 298 299 296 290 297 301 301 302 306 308 312 313 316 317 321 325 326 326 328
303 303 302 303 300 300 300 295 298 303 303 303 304 301 300 292 281 276 270 279 288 289 294 292 291 296 292 290 288 293 293 295 295 295 293 297 296 299 299 296 301 296 296 296 295 299 300 301 300 300 303 302 301 299 301 302 301 301 299 298 297 295 297 297 296 298 289 287 295 299 299 298 289 295 301 306 309 309 310 309 313 319 317 319 321 323 325 326
303 303 303 303 304 304 297 294 301 303 303 305 303 296 291 278 282 273 275 290 278 284 286 287 293 292 292 293 291 290 290 295 295 293 291 292 292 292 294 290 293 288 288 291 290 298 295 296 300 301 304 301 299 297 297 300 300 299 297 297 291 289 289 286 291 286 287 287 295 299 299 295 294 299 303 305 307 309 311 312 312 313 319 319 323 322 323 325
303 303 303 303 303 303 303 304 305 305 305 304 298 293 282 276 270 279 280 284 278 284 286 293 289 292 292 292 289 291 295 290 294 293 294 293 292 293 296 295 296 294 287 293 292 292 293 298 299 299 300 302 300 293 293 293 296 296 294 293 290 286 284 282 286 289 290 294 299 298 300 294 299 300 305 306 308 310 310 313 315 314 315 322 321 321 321 323
303 304 303 304 305 304 304 307 306 305 302 300 293 286 281 273 274 285 283 283 283 290 290 289 290 291 291 288 290 291 288 295 292 292 293 291 292 290 292 295 296 295 296 294 290 291 286 287 294 297 293 301 299 298 297 295 295 296 298 296 293 292 288 282 286 284 286 290 295 300 294 292 293 297 306 308 310 311 311 311 315 316 316 319 322 324 328 331
303 305 306 304 305 305 306 305 306 306 301 296 289 282 275 275 280 279 280 282 285 287 285 290 286 287 287 290 293 292 293 290 294 292 291 290 289 290 290 292 296 297 297 290 294 293 291 291 297 300 300 300 298 301 301 298 296 298 298 299 294 293 298 289 291 292 292 291 291 294 292 298 297 310 315 311 312 313 315 311 313 314 316 316 321 325 326 329
302 304 306 301 300 305 305 304 306 305 298 291 283 278 275 280 277 284 282 288 287 283 285 288 289 286 287 288 292 290 294 292 292 292 290 291 292 291 294 294 294 297 295 291 294 290 292 291 299 299 302 299 300 301 301 301 289 295 296 292 295 301 299 292 292 297 292 291 289 295 295 299 308 308 312 311 310 310 311 313 313 314 315 316 321 325 324 330
301 303 299 300 300 304 305 305 304 302 296 288 282 278 284 284 287 286 288 285 285 286 284 280 285 286 285 284 287 290 291 294 291 291 287 293 290 293 293 294 298 297 299 298 294 298 290 291 298 297 295 300 303 302 302 301 301 297 291 295 301 303 302 295 287 289 289 286 288 295 292 294 296 292 309 307 307 307 308 310 312 315 316 316 322 325 326 326
301 300 300 300 302 305 306 306 304 300 293 286 280 282 287 283 290 288 291 289 288 286 283 281 283 287 284 286 286 289 292 289 289 290 288 291 288 297 294 294 297 298 299 302 296 296 298 289 294 298 298 300 302 301 299 301 303 298 295 303 294 289 289 296 291 284 284 284 287 293 295 294 296 298 304 304 305 306 308 308 309 310 314 318 321 322 326 327
301 298 293 299 306 306 305 306 302 296 289 283 281 280 287 287 290 289 291 292 289 285 283 285 282 286 287 286 289 291 291 288 290 289 287 290 288 295 294 296 294 298 299 301 297 298 299 290 291 298 298 299 299 297 290 294 300 302 303 298 301 298 294 290 291 294 292 285 286 289 293 289 299 303 306 306 306 307 308 308 309 310 314 319 321 322 321 325
298 292 291 305 306 306 307 304 298 292 286 280 284 286 290 286 289 291 292 292 286 286 284 284 286 283 287 289 290 288 291 291 289 290 291 291 291 296 295 298 295 296 299 301 298 300 293 299 286 294 299 298 291 295 293 295 293 294 295 295 296 297 300 298 299 294 291 287 287 287 287 294 301 307 307 308 308 308 308 308 310 312 316 319 322 322 325 327
301 292 294 306 306 307 304 298 291 286 284 289 291 288 290 287 290 290 292 293 291 293 287 285 285 284 287 287 288 292 289 291 290 290 291 291 292 287 297 297 298 295 298 299 298 298 293 294 288 292 292 292 293 298 299 298 298 296 295 294 295 293 292 288 288 297 295 292 287 286 285 296 306 307 309 309 310 310 310 310 311 314 316 320 323 325 328 326
296 287 292 305 306 305 297 289 289 292 289 287 285 287 286 292 289 290 291 292 291 288 294 288 289 287 290 290 291 291 291 290 290 291 292 290 295 294 296 299 298 299 296 294 296 300 300 297 294 288 291 293 296 300 302 302 301 299 298 296 298 297 297 293 285 290 295 295 297 295 289 293 312 314 314 314 311 310 311 310 311 315 320 323 325 327 327 325
295 291 302 305 306 302 296 289 290 290 289 290 292 291 292 290 289 291 289 291 288 292 290 289 288 289 292 291 291 291 293 290 291 290 293 293 295 297 298 298 299 298 299 297 299 299 303 293 290 292 295 297 299 301 301 301 300 298 298 299 298 296 297 295 294 297 293 293 291 292 288 294 308 315 318 318 314 312 313 314 316 322 324 323 324 325 324 324
294 294 298 305 306 302 291 284 286 287 290 292 292 291 292 290 290 289 289 290 289 289 287 289 292 294 292 295 294 291 294 287 292 292 292 295 293 299 299 298 298 296 296 297 295 300 291 295 292 288 288 290 293 296 296 299 299 297 296 297 299 299 299 298 299 300 292 294 294 291 287 293 308 315 317 317 315 316 316 318 321 321 322 322 323 323 324 324
295 297 297 299 303 299 288 291 289 286 287 287 288 288 290 291 293 292 291 290 293 291 290 289 292 294 294 296 293 294 294 292 290 294 294 294 295 299 298 298 298 298 299 301 303 301 295 294 292 286 283 280 280 282 285 288 292 297 298 297 298 298 298 296 291 294 289 295 295 291 290 303 312 312 313 314 314 315 318 317 322 323 320 320 321 322 322 321
290 285 293 296 297 295 295 296 292 289 287 288 286 288 290 287 291 294 293 292 294 293 293 293 294 296 293 293 292 292 292 295 293 292 293 293 294 296 297 298 298 298 300 306 304 301 295 298 296 293 290 288 290 293 297 297 296 293 295 296 296 297 299 299 297 292 289 293 293 296 297 298 304 307 309 312 313 313 314 317 317 317 318 319 322 321 320 319
294 287 287 286 293 294 292 294 292 291 287 291 284 289 286 288 290 291 294 287 293 292 292 293 294 292 292 291 291 291 293 293 295 294 293 295 296 296 298 298 298 300 305 300 303 299 296 293 295 296 295 294 296 296 297 297 294 295 295 295 296 296 297 298 292 291 297 294 289 297 299 299 300 305 307 309 312 314 315 316 316 316 317 318 319 319 315 318
287 290 291 293 286 286 288 288 292 291 291 292 287 291 287 287 288 286 292 294 293 293 287 294 295 296 293 293 292 289 292 292 293 290 295 296 294 295 295 297 296 302 300 300 302 298 295 290 296 296 295 297 297 297 298 296 296 296 296 296 296 296 297 295 296 298 299 292 291 298 300 299 302 306 309 311 313 314 315 316 316 317 318 318 317 316 315 315
294 293 292 296 287 291 291 292 293 292 291 291 289 290 288 289 287 290 289 288 290 288 292 285 291 292 295 295 294 291 293 289 288 295 295 295 294 293 292 294 297 299 298 299 299 301 297 293 297 296 295 296 296 297 298 297 296 296 296 297 297 297 297 297 298 299 299 298 299 299 300 300 303 307 309 311 314 316 317 318 317 316 315 315 315 315 314 314
288 287 287 292 291 289 291 292 293 292 290 291 286 289 289 289 287 290 292 290 286 289 294 289 294 294 295 295 297 292 294 295 296 293 300 296 294 296 293 294 294 298 298 297 298 301 296 291 295 296 293 293 297 297 297 297 296 294 296 296 297 298 297 298 298 299 300 300 300 300 300 299 304 310 311 318 318 317 316 315 314 316 316 315 314 314 313 313
295 296 294 287 284 289 292 293 292 291 289 291 288 290 290 291 290 292 292 295 292 291 294 293 295 295 297 296 296 297 299 298 299 300 302 299 292 298 294 295 298 294 296 296 298 299 297 293 298 295 289 291 295 296 296 297 297 295 295 296 296 296 295 297 295 299 298 297 299 300 297 297 312 315 317 317 315 314 313 313 313 314 316 315 314 313 313 313
297 299 297 291 284 290 288 293 293 291 287 291 292 291 291 291 293 294 289 295 296 297 297 297 297 296 296 296 296 298 301 302 303 304 305 304 304 302 299 299 299 296 295 296 299 295 296 295 291 292 288 289 295 296 296 295 295 292 291 296 297 298 299 299 299 300 301 301 297 293 297 302 310 315 314 314 314 314 313 312 313 314 315 316 314 313 313 312
Wind_Speed
16 16 16 15 13 14 15 15 15 11 11 12 12 11 11 12 11 12 12 14 13 14 15 15 16 17 17 18 17 16 18 15 18 14 12 13 5 9 5 2 4 6 8 11 10 11 11 11 13 12 11 11 10 12 11 13 8 9 11 11 14 13 16 13 15 12 10 11 6 6 7 9 10 8 5 6 10 11 11 7 8 12 9 6 16 17 16 25
16 15 15 15 15 14 13 14 15 14 15 13 12 12 11 11 12 11 12 12 13 14 14 14 16 16 17 18 18 17 17 17 17 17 19 5 10 6 7 6 5 6 6 10 12 12 12 13 13 13 12 11 10 11 12 10 12 11 10 12 14 13 13 14 13 14 9 9 4 6 6 6 8 2 3 8 9 12 11 10 11 11 12 9 14 19 17 16
16 15 15 15 15 14 14 14 13 15 16 15 14 14 13 11 11 12 12 12 12 13 14 13 15 15 15 17 18 18 18 17 16 18 4 14 10 5 3 7 8 8 9 12 11 12 12 10 12 13 12 12 12 13 14 10 13 13 11 13 14 14 14 17 9 7 3 5 6 6 7 7 6 6 1 7 8 6 10 8 11 12 11 10 15 17 17 15
14 14 14 15 15 15 14 14 14 14 14 15 15 14 15 14 11 12 12 11 11 13 14 14 15 16 15 16 17 18 16 16 16 4 12 8 5 2 6 5 8 11 12 14 14 13 11 12 11 14 12 13 11 14 14 12 11 11 14 14 12 15 15 9 2 8 3 5 6 7 5 6 10 9 6 6 8 9 10 10 10 13 12 12 16 16 18 19
15 14 14 14 14 14 14 14 15 14 15 15 14 15 15 15 14 12 12 11 11 11 12 13 13 15 17 16 18 15 14 12 4 11 9 6 2 6 5 8 8 11 13 12 13 14 12 12 12 12 13 12 14 13 14 14 13 10 16 16 16 12 14 6 7 9 9 6 9 9 11 9 8 4 7 10 10 8 3 4 11 11 13 15 17 15 16 17
16 15 15 14 14 14 14 15 14 15 15 14 15 14 15 16 15 14 13 11 11 11 12 13 13 14 16 17 17 14 9 5 5 7 5 3 5 7 10 8 11 12 13 14 14 13 14 13 13 12 12 13 16 15 14 16 15 14 14 16 17 17 9 8 6 6 8 8 9 10 10 10 10 6 8 9 10 9 3 6 2 10 13 15 16 17 14 16
16 16 16 15 14 14 14 14 14 14 14 15 14 15 15 15 14 14 14 13 11 11 11 10 12 13 14 17 16 14 12 13 4 11 9 1 7 10 11 16 10 12 15 14 16 14 16 15 16 14 13 15 16 16 15 15 16 15 13 14 16 16 14 10 9 4 6 10 10 9 10 12 7 13 9 13 10 8 7 4 6 6 12 16 16 15 14 14
15 15 15 15 15 15 15 14 14 14 14 14 14 14 14 13 14 15 13 13 12 10 10 11 11 13 13 13 11 7 12 12 10 13 9 2 9 5 10 10 4 11 16 17 17 18 16 18 17 15 14 14 12 16 14 16 18 16 16 15 11 16 15 12 8 9 7 9 10 9 11 11 10 10 9 9 8 9 8 6 9 9 10 15 17 15 14 11
16 16 16 15 15 15 15 14 14 14 14 14 14 14 14 14 13 13 14 13 13 10 9 11 11 10 11 11 10 12 12 12 11 4 7 5 4 7 9 6 2 10 14 16 18 17 17 16 18 16 13 16 14 16 15 14 14 18 16 16 14 12 14 14 13 11 10 6 8 11 13 12 13 12 14 11 11 6 2 6 11 11 13 14 17 16 15 14
17 17 17 17 16 16 15 15 14 15 15 15 14 14 13 14 13 13 13 13 13 12 9 10 11 8 12 10 10 11 4 5 3 4 2 2 6 8 9 8 4 6 13 16 16 19 19 13 17 16 16 15 14 16 13 18 11 13 16 17 17 12 11 10 13 14 12 11 9 12 11 13 14 12 9 13 14 7 8 10 11 13 14 15 17 16 16 15
16 16 17 16 17 16 16 16 16 15 15 15 15 14 14 14 13 12 11 12 13 12 11 11 8 10 11 9 11 12 2 5 4 1 3 5 8 9 9 6 5 7 10 14 17 19 17 17 14 10 13 11 11 16 15 13 16 7 8 16 19 17 12 11 13 13 11 12 14 12 13 12 15 12 12 12 11 7 10 12 12 13 13 12 16 18 15 14
15 16 16 16 16 16 16 16 16 16 15 15 15 15 14 14 14 13 12 11 13 13 12 11 8 8 12 13 14 16 3 9 8 8 10 12 12 10 10 10 9 9 8 12 16 16 17 17 15 15 11 11 13 11 15 14 14 15 9 12 16 18 14 14 14 13 12 10 11 11 13 14 15 13 16 7 5 8 12 13 15 14 12 12 15 15 14 14
18 17 17 17 17 16 16 16 17 16 16 16 15 15 15 15 15 13 12 11 12 15 12 12 10 9 12 16 19 18 18 19 19 18 15 11 11 11 10 11 12 11 10 11 12 13 14 16 17 17 16 9 13 10 3 15 14 14 13 11 13 15 16 17 14 13 13 10 10 12 12 13 17 15 16 13 13 13 13 14 14 13 13 13 14 15 15 14
18 18 17 17 17 17 16 17 16 17 16 16 16 15 14 14 15 14 13 13 12 12 12 12 10 11 13 19 14 14 16 16 18 18 17 13 14 13 12 13 12 12 10 12 12 9 14 13 16 17 13 15 9 9 7 8 13 14 13 11 12 12 14 18 16 16 15 11 12 13 12 11 16 18 17 16 12 13 14 14 16 13 14 16 15 14 14 15
17 18 18 17 17 17 17 17 17 17 17 16 16 15 14 15 14 14 14 13 12 11 14 9 9 10 11 16 17 23 27 21 20 21 18 15 14 13 14 13 15 13 12 11 10 10 11 15 16 15 13 13 15 9 10 11 11 12 12 15 13 14 10 16 19 19 17 13 16 14 13 12 15 19 20 15 13 15 13 15 13 11 13 15 15 15 12 13
17 17 17 17 17 17 17 17 17 16 16 17 16 15 16 16 15 13 13 13 12 10 9 10 9 11 12 16 7 6 7 14 17 20 17 17 15 14 12 13 12 13 12 10 8 8 9 11 14 12 12 14 17 10 9 11 11 14 15 13 15 14 12 13 20 18 20 13 16 17 11 13 14 18 20 17 16 16 16 16 15 13 9 15 14 16 15 14
17 17 17 17 17 17 17 17 16 16 16 16 16 17 17 16 16 15 14 14 11 10 9 9 9 8 11 5 6 10 9 13 10 8 12 14 15 14 13 14 14 14 12 10 11 10 12 12 10 11 15 13 14 11 11 14 14 13 15 13 13 16 15 11 16 15 18 18 14 18 15 13 14 17 19 16 15 16 16 15 18 18 17 12 14 13 12 12
17 17 17 17 17 17 17 16 16 15 16 15 15 16 17 18 18 16 14 12 9 9 9 9 8 8 16 23 18 12 2 5 6 7 8 10 14 14 14 12 13 15 13 12 13 15 14 12 13 13 13 15 15 16 16 17 15 13 13 14 13 15 18 14 12 16 18 20 16 17 18 16 19 12 17 13 12 14 16 13 16 13 13 12 11 11 11 12
17 17 17 17 17 17 17 17 15 14 15 14 17 23 23 22 14 12 12 9 9 7 7 9 12 12 5 4 12 15 13 7 3 7 10 11 12 13 13 11 14 17 14 13 13 18 14 12 13 14 18 18 18 20 18 13 16 16 16 15 15 13 16 17 11 15 20 19 18 18 16 18 22 12 15 16 17 16 15 9 3 9 13 9 9 6 8 10
17 18 17 18 18 18 16 16 14 14 13 13 11 10 8 7 7 8 13 14 17 15 13 9 19 17 18 14 5 4 3 4 10 11 11 11 11 15 15 14 15 16 15 14 16 19 14 17 18 20 17 19 21 20 20 19 14 14 14 16 17 14 13 17 13 15 18 17 18 16 17 18 19 9 11 15 17 16 15 19 14 7 8 10 10 8 7 11
18 18 19 18 19 19 17 16 13 12 10 11 13 10 9 8 10 7 3 14 17 19 21 20 16 18 15 13 12 3 7 9 12 10 14 11 13 15 15 15 17 16 16 17 15 15 16 18 19 20 20 19 19 18 19 20 19 14 15 15 16 14 11 16 13 12 14 14 15 17 16 19 19 13 13 14 17 16 12 15 14 13 12 9 8 6 8 11
18 19 19 20 19 19 16 14 12 12 8 11 11 11 10 13 8 6 6 7 13 18 20 20 21 22 20 20 16 13 7 9 9 9 11 15 15 16 16 17 19 17 17 18 14 16 18 20 19 20 19 17 18 19 19 21 18 13 12 14 15 13 13 15 12 13 12 14 11 18 16 16 19 17 13 17 17 15 14 10 11 15 11 9 3 8 6 10
19 19 20 20 20 18 14 11 10 4 9 10 10 13 12 9 7 6 8 10 14 13 16 19 20 21 22 18 16 13 16 15 10 12 12 14 16 18 17 17 18 17 18 21 18 18 17 17 21 19 18 19 18 20 19 20 16 12 11 12 14 13 15 13 15 14 12 11 11 15 17 13 16 18 16 16 17 13 12 13 18 14 13 11 12 8 8 11
19 19 19 19 17 14 9 7 7 11 11 13 13 14 12 9 7 6 7 8 10 13 18 19 19 19 21 19 12 18 17 13 14 14 15 15 15 17 15 21 19 18 18 23 22 18 17 13 19 19 19 20 19 19 19 17 13 14 15 13 13 15 16 11 12 11 10 13 16 12 14 13 15 17 16 16 17 17 16 13 11 9 8 15 13 13 12 14
17 17 18 16 13 10 6 8 9 9 11 9 11 5 10 13 7 2 5 7 11 15 19 20 15 18 19 14 15 15 16 14 16 12 14 18 17 16 15 15 14 18 19 23 21 18 17 16 20 21 20 21 18 17 21 17 13 13 18 15 13 13 16 11 13 15 10 11 15 12 10 13 14 17 16 15 16 13 15 17 9 9 12 14 13 15 15 13
16 16 15 13 9 8 8 9 7 8 6 8 5 7 4 5 5 3 6 5 11 10 11 18 13 16 14 18 15 13 12 16 16 14 11 17 15 15 11 14 13 18 21 21 18 12 13 16 20 22 21 21 20 16 20 19 13 13 14 16 13 13 15 13 9 15 11 12 14 16 12 7 12 18 17 16 17 15 10 14 15 14 13 13 12 13 14 14
15 15 14 12 10 8 8 5 6 8 10 4 7 5 5 5 6 5 2 7 11 11 19 7 17 5 13 18 17 14 12 14 13 16 15 16 18 15 15 13 14 11 14 11 10 14 14 20 20 22 21 21 19 17 19 20 15 13 10 16 15 14 16 15 13 13 9 10 14 20 13 10 12 16 17 16 17 15 15 12 16 12 13 13 13 13 13 13
15 14 13 11 11 9 8 10 9 8 6 4 2 3 4 4 5 4 4 6 5 10 13 14 6 8 11 17 21 19 5 12 18 20 18 14 18 16 15 16 17 17 17 15 17 11 17 19 21 24 22 17 18 16 16 20 15 9 12 16 15 11 11 15 13 11 11 10 11 15 18 12 12 11 18 20 20 20 19 17 15 17 15 14 11 12 14 13
15 14 12 12 11 14 12 8 10 10 6 4 2 4 2 5 7 2 4 6 3 4 5 11 5 8 9 19 19 19 10 14 12 19 17 13 18 10 13 16 17 18 18 19 13 13 14 18 19 19 16 16 15 18 17 21 17 15 10 14 11 9 9 10 10 11 12 12 12 15 16 13 12 10 14 18 20 20 21 21 20 19 18 14 11 12 12 10
15 14 13 12 12 9 8 5 7 11 6 4 3 3 4 5 2 5 4 8 5 7 8 6 10 12 16 18 17 20 17 12 8 20 19 14 18 14 12 11 14 17 16 17 16 13 14 12 14 11 17 15 17 17 17 19 19 14 9 15 13 10 9 7 8 9 9 12 14 13 18 15 11 13 10 14 15 15 15 15 20 21 18 14 13 10 8 7
15 14 13 11 10 6 7 7 2 8 3 2 3 4 5 3 6 6 9 1 5 6 7 10 11 16 17 19 14 18 19 13 10 22 17 16 18 14 11 12 13 14 12 14 17 17 14 16 17 13 16 13 16 16 17 17 20 14 9 11 12 11 10 9 9 10 11 12 15 15 13 18 14 11 11 9 12 16 14 16 17 23 21 18 14 12 11 11
15 15 13 11 11 9 8 5 6 3 3 4 4 3 3 5 4 7 5 7 3 5 7 2 11 13 18 16 13 18 16 15 15 19 18 16 17 15 16 14 15 16 18 19 16 15 15 15 13 15 16 21 17 15 16 17 20 14 12 13 13 11 8 10 11 12 14 12 10 15 17 14 17 10 8 16 15 16 14 13 16 19 26 22 16 18 17 16
17 14 16 13 12 8 9 8 7 2 3 3 4 2 4 6 7 8 10 8 2 3 4 9 4 13 16 18 16 19 17 15 18 17 18 18 16 16 19 15 18 14 14 16 16 17 11 16 20 17 16 17 16 17 16 16 19 17 15 15 15 13 13 12 14 8 10 10 10 13 19 15 9 14 14 6 16 13 15 13 14 16 17 24 22 21 20 18
18 16 11 8 7 8 7 5 4 3 3 2 4 4 5 7 4 6 5 7 6 2 7 8 15 9 16 14 15 18 15 15 19 15 19 16 16 16 18 20 21 18 11 15 17 19 13 15 19 21 15 18 18 18 15 14 18 16 15 15 14 12 10 10 11 12 12 10 13 9 12 11 13 5 13 9 4 9 10 12 11 12 14 14 18 15 17 17
19 16 10 9 7 7 7 6 5 2 2 3 4 6 7 7 6 5 5 8 4 7 9 11 9 7 13 14 16 20 14 13 18 17 17 16 16 16 18 18 23 18 14 15 14 12 19 11 14 20 11 21 19 16 15 17 15 15 14 13 14 14 8 10 6 8 10 10 11 11 8 9 6 6 10 8 9 6 0 5 8 11 11 13 13 17 14 14
16 7 4 4 3 1 3 4 4 5 4 5 5 6 8 3 4 3 3 4 4 9 13 16 7 6 7 11 14 19 20 10 19 14 14 17 17 16 19 15 18 22 15 13 12 14 14 12 17 19 14 20 18 17 16 17 14 15 15 16 15 13 11 6 4 2 5 5 9 5 10 6 7 4 4 7 11 10 8 8 7 7 8 11 13 13 15 14
8 5 3 2 2 1 3 3 4 5 3 5 6 7 4 3 1 4 4 7 6 8 7 7 6 4 8 9 12 19 17 14 18 14 12 16 14 18 19 18 18 22 20 13 14 13 12 11 18 18 18 17 18 18 16 17 11 12 15 15 13 13 14 9 7 5 7 10 6 12 13 12 10 8 10 10 12 13 13 13 12 11 10 10 12 13 14 13
7 5 4 5 3 1 3 4 6 4 4 5 7 9 5 7 1 6 5 7 6 3 6 5 3 5 6 9 14 18 17 14 18 15 12 16 9 18 18 16 21 19 20 18 10 15 13 10 14 18 16 16 18 17 15 14 16 13 15 11 14 12 14 13 6 12 12 10 9 13 13 13 13 9 14 15 15 14 14 15 14 15 13 12 13 14 14 14
6 3 3 3 2 2 4 3 5 5 5 6 7 7 1 3 5 4 6 7 2 4 6 1 4 1 5 7 14 18 17 13 18 13 13 13 11 18 18 14 19 22 21 20 14 12 14 10 11 16 18 17 16 16 15 15 17 17 12 15 13 9 12 12 9 8 9 9 8 12 14 10 13 9 17 17 16 16 16 16 16 16 15 14 12 14 13 15
5 3 2 4 2 3 3 5 5 5 5 7 6 4 3 5 6 5 6 4 2 2 2 7 3 7 10 10 13 15 16 14 17 12 12 11 9 19 16 14 14 20 20 19 12 14 10 9 10 14 17 17 15 15 17 16 16 15 13 15 14 11 9 11 9 11 10 8 9 6 11 9 8 10 14 16 16 16 16 15 14 14 15 14 14 14 16 17
2 5 5 1 2 2 3 4 6 6 7 8 7 5 7 6 7 7 7 3 5 5 7 6 7 5 5 5 12 14 12 12 15 13 11 13 11 12 15 15 14 19 19 21 16 14 8 12 11 14 16 17 15 16 15 17 18 16 13 13 15 16 12 12 12 11 13 10 8 9 8 6 6 4 9 13 13 15 16 16 13 13 14 14 12 14 16 16
8 1 5 3 1 3 4 6 6 7 6 5 6 7 7 6 8 8 7 5 7 7 6 7 10 8 9 10 8 14 11 12 13 13 11 12 15 8 14 16 16 19 17 15 14 16 9 9 11 13 15 14 17 18 17 16 19 18 12 11 12 12 12 12 11 12 12 12 9 9 8 2 5 4 4 2 12 13 14 15 14 13 13 12 13 16 16 17
5 3 4 1 2 4 6 7 7 3 4 5 5 5 7 6 7 7 9 6 7 5 4 5 7 7 8 8 9 13 11 10 14 11 10 14 15 11 14 16 17 19 16 14 16 15 9 8 12 13 13 13 14 16 17 15 16 17 15 15 14 14 15 13 11 10 9 10 10 6 6 4 3 3 3 0 5 14 11 13 13 12 14 15 16 15 17 17
5 4 1 4 1 3 6 5 4 5 6 8 8 9 6 8 9 9 7 8 3 3 3 5 7 5 10 12 8 6 11 8 13 12 11 12 11 15 22 17 21 17 15 13 12 16 9 10 12 12 11 13 14 15 15 17 15 14 14 17 17 14 16 14 12 9 8 12 12 7 9 6 5 3 3 4 3 9 10 9 13 16 14 14 14 15 16 16
6 4 4 2 4 3 5 5 6 6 7 10 11 11 8 4 3 6 7 9 7 7 4 5 6 9 9 10 7 6 4 6 10 12 9 12 8 10 20 20 22 16 14 15 14 14 9 10 12 13 16 17 17 18 18 19 19 13 15 19 20 17 17 13 11 10 11 11 14 9 4 4 4 5 8 6 8 9 8 10 14 13 15 14 15 15 17 15
3 4 2 2 3 4 6 6 5 6 8 9 11 8 9 8 7 4 5 8 7 8 9 11 12 10 11 8 7 6 8 7 8 8 12 11 10 11 16 20 20 16 21 15 15 14 8 11 13 13 14 13 13 13 12 12 13 15 18 19 20 20 17 15 10 11 9 7 11 13 9 7 7 8 11 13 9 11 12 13 13 14 14 14 14 15 14 13
5 3 4 5 7 6 5 4 6 5 6 7 7 7 9 11 9 4 5 2 1 8 6 8 8 6 7 8 8 8 9 6 9 12 12 13 9 10 19 19 18 19 5 7 12 11 9 12 16 15 14 14 15 13 12 15 17 17 17 19 19 21 19 17 11 11 12 10 10 10 13 10 5 9 12 14 12 11 12 11 12 13 13 14 11 12 14 12
3 2 2 4 5 5 8 2 4 8 9 8 7 8 9 12 11 7 5 2 5 5 2 4 8 8 5 6 6 5 10 7 10 8 11 9 11 13 15 19 17 13 6 14 16 11 11 9 15 15 15 16 14 16 17 17 17 17 17 17 19 19 20 17 14 14 11 8 7 11 14 14 11 9 9 12 11 11 14 11 10 12 13 14 14 16 14 13
2 4 4 5 5 7 9 13 13 11 11 8 6 6 10 10 11 9 4 3 3 3 6 4 6 7 7 8 5 3 7 5 4 7 6 9 12 15 13 18 17 17 13 14 13 8 8 9 15 14 12 15 15 16 16 18 17 17 18 16 16 17 18 17 15 15 15 12 12 6 9 11 11 11 11 11 11 12 12 13 13 14 16 17 16 15 15 16
4 4 3 6 7 11 12 10 10 9 8 4 3 5 7 9 10 10 7 3 3 2 7 4 10 9 5 3 3 5 5 7 5 4 4 10 12 12 14 13 13 17 16 13 11 12 11 9 14 14 11 13 14 13 11 11 13 15 17 17 16 15 15 17 14 14 16 13 12 13 7 8 5 11 10 12 11 11 13 14 14 14 16 17 17 17 16 16
4 4 6 6 9 6 8 8 8 7 6 2 4 5 6 7 9 10 10 5 4 7 7 11 11 7 5 2 3 7 7 7 6 5 8 3 3 14 11 12 15 16 18 13 12 13 12 5 14 12 8 9 10 11 10 13 15 16 16 19 19 19 18 16 13 13 13 14 14 10 8 8 8 11 12 13 12 13 15 14 12 13 15 17 18 18 17 17
7 5 4 4 5 7 8 8 9 8 4 4 4 8 7 11 10 9 8 2 2 5 7 10 10 7 2 1 4 5 7 7 7 8 8 1 2 4 7 10 13 15 13 14 12 12 11 8 10 12 12 9 12 10 12 11 11 14 14 16 19 17 14 14 14 15 16 14 12 9 10 7 12 11 12 12 13 13 14 14 14 14 15 16 18 18 18 18
Wind_Direction
341 338 335 333 323 312 307 309 310 296 289 297 299 300 304 308 311 318 319 318 327 324 326 330 330 328 321 325 322 318 312 304 298 285 266 256 318 40 72 29 290 285 290 278 253 243 235 222 214 214 215 218 212 228 219 205 224 208 223 232 234 236 240 241 246 247 254 266 196 139 192 227 235 160 212 185 225 236 249 235 225 236 212 208 93 104 125 133
342 339 338 338 335 326 317 307 301 305 302 298 293 293 296 297 305 309 312 316 320 317 324 329 326 327 325 321 329 317 311 298 290 281 265 72 59 60 358 314 271 255 270 255 237 221 230 210 212 202 214 218 202 223 212 198 211 216 220 226 237 230 239 250 250 249 253 236 267 189 165 218 233 84 144 247 221 212 218 223 229 208 207 146 123 122 129 140
343 341 340 339 339 333 327 321 313 301 296 296 299 299 290 291 295 300 305 312 317 315 319 330 326 325 326 322 319 313 299 293 286 269 248 74 85 37 351 268 254 228 220 239 230 233 229 225 206 206 213 226 201 216 205 205 198 214 231 226 231 243 248 239 246 279 256 280 258 144 186 210 224 200 59 253 271 239 229 216 206 205 174 170 135 145 147 156
342 341 340 340 340 339 336 331 326 318 306 295 292 291 297 290 289 294 299 309 308 311 320 325 327 327 322 320 318 306 297 291 277 188 88 88 73 147 257 240 231 217 224 241 257 249 239 250 232 208 216 225 207 217 199 202 202 199 228 235 234 229 246 231 239 257 272 279 262 225 209 211 223 231 238 257 254 244 250 232 208 202 178 181 147 158 161 172
344 344 343 341 340 339 338 338 333 329 317 309 300 292 286 289 291 294 295 298 305 307 317 324 323 322 325 318 309 298 297 289 101 85 92 70 83 277 250 251 228 221 215 229 240 250 247 233 234 218 225 213 228 200 221 206 212 224 224 236 246 245 239 252 199 231 247 246 259 239 234 229 226 209 235 241 246 250 336 218 195 202 178 177 158 156 168 173
342 343 343 340 340 340 339 336 334 332 329 320 309 303 293 286 283 282 287 290 298 305 312 322 321 324 319 321 302 291 285 253 61 110 107 84 292 288 280 275 240 229 212 219 226 228 228 226 224 216 213 230 217 217 205 219 196 233 225 233 238 250 259 256 249 225 229 227 229 238 235 246 239 257 245 246 249 271 306 296 212 200 173 173 160 159 167 173
339 339 339 339 337 338 336 332 332 332 331 328 321 310 304 291 284 280 281 289 293 299 312 319 318 321 323 302 285 267 255 278 250 124 97 242 336 280 291 283 200 206 209 209 216 221 216 222 215 215 217 223 229 225 215 210 212 227 240 219 229 245 242 247 259 189 211 242 241 237 243 238 237 239 228 236 232 246 276 185 253 209 168 158 158 152 164 169
332 333 333 334 335 332 333 331 330 330 329 328 326 321 308 301 290 285 280 280 285 294 302 303 319 319 328 310 309 271 240 249 260 129 103 196 280 298 287 285 189 203 206 210 207 216 214 216 211 214 225 219 215 227 215 217 219 220 231 243 228 231 237 235 227 228 215 230 240 245 242 239 240 251 247 239 237 241 214 184 231 184 178 165 155 155 157 173
327 327 328 325 328 329 328 329 328 327 326 325 325 325 316 310 300 289 284 283 281 281 294 294 309 323 310 282 284 285 261 257 273 31 141 212 290 307 294 272 191 214 208 209 213 216 216 214 219 214 219 224 229 231 219 224 219 221 228 236 238 228 227 220 228 229 223 229 231 232 236 240 241 238 246 254 251 224 198 181 205 182 182 169 152 157 158 182
323 323 323 322 321 323 323 323 324 324 323 321 323 323 320 311 304 291 281 280 278 280 281 290 297 324 293 285 277 264 291 21 283 257 263 254 302 304 275 275 288 250 215 211 213 216 216 214 219 212 241 242 231 234 225 221 239 205 224 236 240 232 231 231 236 231 229 237 235 237 234 233 226 226 241 229 231 158 200 207 190 189 186 181 163 162 162 176
318 319 318 319 318 317 317 318 319 319 320 319 320 322 318 316 305 297 285 276 276 275 277 285 300 290 291 288 263 251 47 262 93 314 180 261 294 284 265 271 285 268 237 218 219 216 218 227 215 225 226 237 236 238 228 226 230 238 232 226 237 238 224 228 224 235 223 227 224 234 240 237 226 215 243 218 164 172 207 196 190 188 178 180 158 164 160 162
311 313 312 312 315 313 316 314 315 315 315 318 317 317 319 313 305 294 285 271 269 270 270 279 291 284 278 266 252 241 297 302 303 299 285 288 278 271 268 268 260 262 259 231 217 217 222 221 227 221 224 204 246 249 230 236 223 233 225 240 229 229 231 221 225 214 221 227 206 217 244 229 226 217 224 172 180 172 211 190 190 182 176 181 161 156 155 159
311 311 309 308 310 312 310 312 311 313 312 313 315 313 313 313 306 296 286 275 262 264 266 273 275 280 284 269 252 261 267 272 279 278 277 268 268 262 259 253 247 247 248 249 226 222 227 226 226 228 233 223 218 226 346 221 222 233 228 243 229 222 227 219 220 221 209 219 203 201 225 219 216 218 218 215 166 204 201 197 190 186 170 181 162 152 158 156
310 306 305 305 305 306 308 307 310 308 311 308 310 309 307 306 303 296 282 274 273 266 267 273 273 278 272 269 274 267 267 262 265 267 262 262 259 255 248 240 238 233 237 244 247 229 225 230 230 235 233 235 234 216 255 227 212 219 221 222 238 224 224 210 209 205 219 198 209 207 237 223 209 209 217 210 182 177 197 193 195 190 175 180 155 159 156 160
312 311 307 305 301 301 303 305 305 308 306 308 304 306 302 296 293 292 285 272 256 262 266 267 261 279 271 276 272 257 238 249 260 255 253 249 243 245 233 228 221 224 226 229 230 240 229 223 223 224 226 224 249 241 217 224 200 215 217 217 221 237 226 206 195 201 210 192 201 206 234 240 206 200 207 199 196 187 198 198 180 197 178 173 157 154 151 155
317 317 313 311 307 301 299 300 301 304 303 303 303 301 299 289 285 285 279 270 273 247 233 248 250 241 277 286 281 72 228 223 235 240 240 236 234 236 227 214 214 212 217 216 223 220 226 224 220 216 223 206 224 228 219 215 207 207 221 219 214 216 233 220 183 194 204 201 189 209 229 224 234 191 196 187 193 189 198 187 176 186 229 171 158 162 160 157
321 316 317 313 310 305 300 296 297 297 300 300 303 291 284 284 279 273 264 255 242 231 240 252 251 244 253 258 266 246 235 219 227 222 214 210 217 224 224 200 202 202 203 208 208 206 200 211 200 220 225 217 209 213 214 211 207 206 207 226 217 212 214 231 154 192 194 210 191 205 232 232 239 190 180 172 197 199 204 185 183 179 193 169 169 141 145 155
320 319 315 314 311 309 303 296 292 295 298 300 294 292 282 274 268 261 252 240 246 243 240 237 251 272 253 239 253 239 308 45 175 237 212 186 207 211 222 207 188 196 189 192 197 205 189 204 196 213 202 215 202 206 216 206 204 198 197 214 217 213 215 222 181 178 196 201 208 196 220 235 243 187 157 165 204 209 206 169 194 177 167 175 137 128 161 151
321 317 318 314 310 307 305 297 292 294 296 302 289 269 259 258 260 246 246 230 218 204 208 205 203 198 33 56 215 241 252 255 269 227 207 196 190 210 215 222 187 184 190 194 180 201 181 207 200 212 207 201 206 205 214 219 204 211 201 207 219 208 202 223 178 177 195 192 210 197 208 222 241 192 171 185 206 215 205 123 321 182 153 125 128 151 130 115
321 320 317 315 312 305 303 296 288 288 295 293 290 284 278 252 227 233 221 226 223 224 233 224 195 220 272 267 220 85 323 217 231 217 223 193 185 194 205 209 187 195 195 200 172 201 176 201 200 206 206 202 208 209 216 226 230 218 212 207 219 220 201 209 221 169 187 199 208 203 206 219 230 202 186 190 197 205 205 127 202 201 147 114 109 161 143 134
320 321 318 314 311 309 300 295 287 280 284 282 287 282 273 281 270 266 356 232 229 226 237 251 228 220 244 265 264 269 311 206 214 206 209 178 197 182 193 201 191 194 202 199 182 187 193 209 210 205 206 204 204 210 214 222 233 228 212 207 217 215 212 199 204 151 184 214 197 215 206 216 225 211 200 199 196 204 190 149 179 207 103 118 146 144 147 121
323 320 319 315 312 306 301 290 280 282 279 277 275 270 270 267 313 317 284 271 233 235 238 243 250 248 243 250 259 275 283 274 202 214 188 181 188 195 177 201 191 196 188 199 181 187 201 211 206 203 204 207 203 208 211 222 225 241 243 201 217 200 224 193 178 166 189 210 211 202 219 213 218 222 199 212 199 202 209 174 99 88 105 137 163 140 148 130
323 322 321 319 312 308 298 285 284 290 277 269 269 263 264 296 327 319 291 276 278 264 245 233 238 241 247 251 250 238 244 236 232 207 192 191 183 210 175 197 194 196 189 198 192 190 202 210 206 199 200 209 204 206 207 217 226 221 231 207 208 196 207 189 177 163 187 206 216 195 216 219 215 223 215 210 206 189 199 113 104 129 156 161 157 160 173 142
325 325 325 321 317 310 310 295 296 265 255 263 266 275 286 276 257 277 299 275 287 254 234 235 239 238 236 232 225 235 229 229 235 217 189 198 198 199 200 198 195 201 196 198 202 199 205 194 199 199 198 207 204 198 203 212 207 218 223 216 207 204 206 223 162 166 183 202 236 210 204 221 213 212 211 208 205 201 109 110 133 153 167 160 176 158 165 153
326 329 324 323 320 310 306 318 266 260 260 263 276 341 10 319 272 266 266 275 247 252 242 244 228 230 237 229 226 219 216 236 225 230 185 198 195 191 212 192 208 203 202 197 204 207 206 198 191 199 196 202 204 195 203 203 206 208 222 230 220 209 208 197 172 175 184 207 208 233 213 213 209 216 207 207 199 191 141 114 136 169 190 174 166 165 172 161
327 325 327 319 319 314 293 269 271 264 297 290 352 27 337 4 314 313 254 253 270 267 226 224 187 229 206 214 200 217 206 224 214 221 203 192 211 203 188 202 211 198 204 194 205 210 205 192 191 198 195 194 202 202 200 201 207 208 200 227 236 220 216 183 197 182 194 208 182 213 229 198 213 213 208 205 203 143 156 149 146 173 186 181 171 171 168 166
326 323 321 320 302 309 273 250 295 316 281 25 339 348 325 329 355 266 249 223 265 213 218 171 164 163 181 189 182 182 199 218 187 213 214 186 206 206 216 197 193 228 200 193 197 206 206 193 190 195 194 194 199 204 194 194 207 212 189 204 230 236 221 179 199 192 211 210 190 200 221 241 201 205 199 204 209 145 164 177 154 165 187 182 175 170 172 175
324 321 318 315 299 278 281 300 294 290 347 111 301 348 345 334 339 242 222 272 278 133 182 149 214 109 212 160 177 187 264 130 169 193 212 177 209 198 230 203 195 202 193 196 204 178 197 195 192 193 195 193 199 199 179 194 213 214 190 194 215 236 217 196 197 202 226 198 206 190 203 236 251 193 193 203 215 181 158 172 185 174 190 194 169 176 174 181
321 318 311 305 298 280 282 282 292 281 330 345 31 336 352 346 282 269 237 255 113 85 24 156 83 163 199 159 182 204 229 165 181 161 187 185 211 212 209 222 198 205 202 201 207 180 197 209 191 188 184 193 193 194 193 189 207 222 187 185 197 219 216 211 199 212 212 222 208 191 195 223 226 232 192 201 213 211 192 175 185 191 183 186 174 178 172 180
316 313 308 301 288 266 241 272 270 278 289 358 345 335 315 277 267 221 228 231 344 175 188 125 192 176 174 169 188 202 219 189 215 148 175 188 190 227 227 234 215 201 201 194 218 201 185 197 165 192 194 196 195 198 200 188 209 215 191 177 191 200 205 207 226 224 219 226 227 202 192 215 225 219 205 193 207 208 198 183 181 171 183 183 183 177 165 172
314 305 301 299 284 287 290 260 24 291 27 359 344 287 292 232 236 226 225 179 326 53 318 161 184 168 173 181 181 194 221 181 173 155 167 182 184 207 199 206 223 201 200 188 212 206 179 189 177 199 210 207 203 192 194 190 203 207 169 190 186 202 208 209 214 226 228 228 211 212 211 194 236 209 203 195 192 209 202 192 182 158 175 179 181 167 175 175
315 305 288 283 288 300 279 276 191 237 13 347 306 288 258 231 213 229 212 123 303 350 323 247 177 180 178 190 187 179 195 171 159 174 169 179 179 185 196 192 181 181 196 183 197 173 182 195 200 196 210 213 192 193 184 187 200 197 178 199 194 183 188 201 198 207 219 222 201 202 217 206 218 248 197 189 195 196 208 200 192 180 168 179 169 176 188 185
312 300 289 272 274 264 258 279 306 297 342 309 275 253 233 249 230 226 251 357 299 20 346 320 299 196 180 186 187 177 198 177 167 181 173 177 183 192 196 206 184 202 184 173 191 180 182 190 191 205 199 212 191 195 172 187 197 193 186 195 195 187 186 202 201 207 221 221 232 202 209 232 197 223 259 215 177 191 202 205 188 188 188 161 173 196 184 176
306 301 290 276 267 241 258 277 272 246 222 320 250 208 254 273 244 41 332 9 342 297 271 335 328 277 194 192 175 178 188 179 169 175 182 175 188 184 195 206 196 197 200 172 199 184 173 187 198 194 196 188 200 210 175 191 191 193 199 202 205 202 188 195 202 199 209 204 206 230 201 216 206 174 228 198 159 163 196 198 187 188 187 186 162 175 172 165
303 292 275 272 248 249 247 231 228 194 217 236 245 253 252 246 269 357 8 347 353 324 315 319 301 302 200 202 168 181 198 166 179 172 185 178 187 189 188 195 197 201 190 183 204 190 193 203 180 197 192 184 204 197 183 189 195 197 203 217 214 214 182 208 199 224 204 205 202 195 237 196 204 84 34 106 118 130 202 202 184 186 185 184 172 168 151 152
301 270 249 258 276 209 226 203 200 171 222 240 254 253 248 352 330 346 3 337 342 337 319 304 257 246 215 193 180 171 198 197 180 183 187 189 186 191 186 193 194 197 192 195 178 196 186 203 173 185 195 189 194 189 200 193 200 177 203 211 212 216 201 198 187 10 358 240 211 178 211 194 71 217 111 200 158 173 186 200 197 188 193 183 167 163 154 161
304 303 244 261 229 195 207 220 179 199 219 256 269 272 346 336 320 335 354 342 327 308 309 335 171 231 194 192 179 174 183 188 177 189 179 186 186 198 184 193 200 196 216 191 185 196 184 187 167 174 191 184 194 198 209 201 212 172 208 205 211 223 231 200 207 179 229 205 205 184 198 205 188 205 173 189 183 182 186 195 196 197 197 184 167 161 161 155
307 306 314 285 9 247 213 188 192 198 231 256 252 270 289 272 85 324 340 323 323 310 296 300 338 339 203 190 172 179 168 189 171 194 180 186 185 190 184 191 193 202 211 204 201 181 196 178 165 182 194 174 193 201 214 206 217 207 202 191 208 182 219 206 214 204 197 207 216 190 196 221 207 195 165 181 195 188 191 197 198 198 189 185 175 172 162 148
282 2 248 41 280 231 206 190 221 210 227 249 259 266 76 315 247 313 350 327 287 303 285 25 338 240 313 233 185 176 172 189 169 191 185 180 197 179 193 191 178 198 206 204 202 183 200 194 162 186 199 172 188 197 202 188 205 235 204 205 213 222 210 207 207 217 195 208 222 204 202 222 210 193 170 179 192 194 195 198 198 191 188 181 179 166 152 140
256 182 89 47 56 217 183 206 225 224 246 257 316 336 351 313 330 335 330 7 319 311 300 307 305 306 275 263 212 171 184 188 171 184 198 164 201 159 194 181 178 191 197 207 199 185 198 187 171 177 191 172 196 192 202 186 185 200 212 202 191 224 204 233 188 221 197 206 207 220 210 208 213 165 179 176 186 191 195 195 193 189 183 182 171 167 145 153
345 316 62 69 113 169 209 227 242 240 242 257 248 333 346 359 334 326 329 308 287 243 264 275 286 267 311 308 210 169 187 174 182 186 191 162 201 158 196 183 179 180 192 200 193 181 203 177 177 169 189 192 199 188 202 190 192 200 206 207 197 198 194 199 210 197 227 205 195 205 224 202 45 163 183 174 183 182 187 194 194 190 177 172 160 138 144 144
296 349 69 90 134 231 253 251 238 231 271 325 351 351 327 348 296 315 314 308 267 273 229 258 261 254 271 274 223 165 180 160 184 181 185 170 169 182 174 182 181 177 194 183 189 181 198 174 180 188 197 190 201 174 207 198 198 206 200 215 214 203 210 197 218 196 215 227 224 206 216 166 77 51 123 107 173 181 182 188 186 187 167 139 131 136 136 141
344 19 66 73 187 254 265 273 257 252 273 10 330 280 312 298 305 304 307 313 301 269 264 258 286 302 278 294 203 175 174 161 182 181 163 186 165 190 155 173 179 179 201 178 188 169 177 186 179 185 189 186 199 182 201 221 208 204 201 216 211 213 204 220 213 219 214 211 228 195 236 151 138 57 73 15 224 171 170 175 168 112 110 132 134 136 139 144
334 335 120 142 249 280 285 314 349 339 333 322 315 308 307 301 298 307 302 305 295 305 293 289 305 264 292 293 289 200 160 162 184 175 178 172 176 203 160 180 181 185 197 177 201 162 189 190 179 176 180 173 193 187 194 211 220 209 203 207 218 213 201 220 233 218 226 218 228 200 210 147 161 191 153 182 151 114 144 155 126 123 133 138 141 144 144 147
309 293 270 195 179 254 286 335 318 315 318 316 319 315 321 296 309 310 299 288 290 279 283 280 274 307 288 286 277 244 161 191 168 174 167 176 158 159 159 185 187 179 194 179 227 154 207 181 184 187 178 177 185 188 188 191 202 199 210 203 213 218 205 196 214 216 235 201 221 213 204 77 115 186 173 177 148 141 152 134 101 131 137 140 145 149 147 140
332 335 1 204 220 239 252 265 276 297 309 325 321 325 328 322 334 313 254 282 289 286 266 275 287 269 274 254 231 235 192 193 163 166 172 166 134 177 168 180 185 170 198 167 208 158 214 202 198 200 199 190 199 189 173 190 189 209 197 209 201 214 216 209 205 224 217 200 224 212 216 140 153 185 175 172 169 161 159 127 123 127 137 142 149 149 142 136
299 326 345 342 322 243 274 274 288 280 294 326 308 330 318 319 323 337 123 313 325 326 302 268 277 294 231 205 192 182 171 174 170 181 161 135 163 144 170 176 185 183 136 129 191 163 217 207 200 206 207 208 200 184 186 202 201 205 202 204 206 203 217 215 207 215 218 228 220 215 209 167 180 178 182 173 168 165 146 124 130 133 138 147 133 115 124 135
326 52 285 358 305 320 316 315 310 297 291 285 280 296 296 317 336 344 314 249 303 305 300 240 245 254 225 187 169 179 154 172 172 157 134 149 145 154 166 175 190 151 133 181 175 189 202 214 196 199 209 216 188 191 195 194 210 201 210 203 205 203 208 217 211 220 206 217 223 198 212 199 171 168 184 163 165 172 156 142 142 140 137 135 131 138 142 144
324 319 282 327 297 300 300 304 302 292 294 297 296 292 311 326 328 341 334 307 305 278 218 288 328 218 199 183 152 64 1 165 120 121 149 159 148 154 163 167 188 163 184 181 185 208 215 202 196 209 209 214 202 205 202 197 197 204 205 209 207 209 206 208 216 220 215 211 236 258 210 217 171 156 157 151 165 151 140 137 147 150 147 146 150 154 150 148
0 335 326 331 290 288 280 278 281 286 285 274 265 306 312 310 315 328 337 271 282 278 180 266 1 343 77 261 83 82 62 1 37 100 355 148 143 166 158 175 161 169 181 186 186 196 231 170 191 199 210 221 219 204 184 202 209 209 202 207 207 208 209 204 207 216 214 213 221 244 231 217 157 159 147 123 131 138 143 152 157 155 155 157 157 155 151 147
316 297 301 303 306 291 297 289 291 300 301 262 255 308 303 322 325 335 326 349 338 343 354 12 2 8 24 256 103 88 40 25 14 59 345 37 161 157 159 176 169 164 181 177 197 177 223 200 190 195 203 198 219 189 190 208 208 215 206 204 206 203 208 200 205 195 206 212 211 216 189 202 102 120 118 136 143 153 157 158 158 163 160 162 156 151 148 145
314 314 303 276 278 291 294 295 288 290 293 353 310 317 315 319 319 331 328 319 343 1 341 337 354 335 34 344 51 10 340 329 342 325 322 226 210 120 183 172 176 168 181 176 181 185 205 210 189 191 202 192 192 204 206 208 212 216 218 207 203 205 207 204 204 199 208 206 204 204 204 163 148 144 152 155 159 156 157 165 164 164 167 160 153 151 145 139